owner,sensor,date,latitude,longitude,air_temperature,qcFlag 
COMPS,ioos:station:USF.COMPS:FHP:1,2017-02-01T00:00:00Z,28.1530,-82.8010,16.44,1111122 
COMPS,ioos:station:USF.COMPS:FHP:1,2017-02-01T00:06:00Z,28.1530,-82.8010,16.44,1111122 
COMPS,ioos:station:USF.COMPS:FHP:1,2017-02-01T00:12:00Z,28.1530,-82.8010,16.44,1111122 
COMPS,ioos:station:USF.COMPS:FHP:1,2017-02-01T00:18:00Z,28.1530,-82.8010,16.45,1111122 
COMPS,ioos:station:USF.COMPS:FHP:1,2017-02-01T00:24:00Z,28.1530,-82.8010,16.44,1111122 
COMPS,ioos:station:USF.COMPS:FHP:1,2017-02-01T00:30:00Z,28.1530,-82.8010,16.41,1111122 
COMPS,ioos:station:USF.COMPS:FHP:1,2017-02-01T00:36:00Z,28.1530,-82.8010,16.46,1111122 
COMPS,ioos:station:USF.COMPS:FHP:1,2017-02-01T00:42:00Z,28.1530,-82.8010,16.44,1111122 
COMPS,ioos:station:USF.COMPS:FHP:1,2017-02-01T00:48:00Z,28.1530,-82.8010,16.38,1111122 
COMPS,ioos:station:USF.COMPS:FHP:1,2017-02-01T00:54:00Z,28.1530,-82.8010,16.32,1111122 
COMPS,ioos:station:USF.COMPS:FHP:1,2017-02-01T01:00:00Z,28.1530,-82.8010,16.32,1111122 
COMPS,ioos:station:USF.COMPS:FHP:1,2017-02-01T01:06:00Z,28.1530,-82.8010,16.31,1111122 
COMPS,ioos:station:USF.COMPS:FHP:1,2017-02-01T01:12:00Z,28.1530,-82.8010,16.32,1111122 
COMPS,ioos:station:USF.COMPS:FHP:1,2017-02-01T01:18:00Z,28.1530,-82.8010,16.19,1111122 
COMPS,ioos:station:USF.COMPS:FHP:1,2017-02-01T01:24:00Z,28.1530,-82.8010,16.18,1111122 
COMPS,ioos:station:USF.COMPS:FHP:1,2017-02-01T01:30:00Z,28.1530,-82.8010,16.19,1111122 
COMPS,ioos:station:USF.COMPS:FHP:1,2017-02-01T01:36:00Z,28.1530,-82.8010,16.21,1111122 
COMPS,ioos:station:USF.COMPS:FHP:1,2017-02-01T01:42:00Z,28.1530,-82.8010,16.12,1111122 
COMPS,ioos:station:USF.COMPS:FHP:1,2017-02-01T01:48:00Z,28.1530,-82.8010,16.14,1111122 
COMPS,ioos:station:USF.COMPS:FHP:1,2017-02-01T01:54:00Z,28.1530,-82.8010,16.06,1111122 
COMPS,ioos:station:USF.COMPS:FHP:1,2017-02-01T02:00:00Z,28.1530,-82.8010,16.05,1111122 
COMPS,ioos:station:USF.COMPS:FHP:1,2017-02-01T02:06:00Z,28.1530,-82.8010,16.1,1111122 
COMPS,ioos:station:USF.COMPS:FHP:1,2017-02-01T02:12:00Z,28.1530,-82.8010,16.12,1111122 
COMPS,ioos:station:USF.COMPS:FHP:1,2017-02-01T02:18:00Z,28.1530,-82.8010,16.06,1111122 
COMPS,ioos:station:USF.COMPS:FHP:1,2017-02-01T02:24:00Z,28.1530,-82.8010,16.05,1111122 
COMPS,ioos:station:USF.COMPS:FHP:1,2017-02-01T02:30:00Z,28.1530,-82.8010,16.05,1111122 
COMPS,ioos:station:USF.COMPS:FHP:1,2017-02-01T02:36:00Z,28.1530,-82.8010,16.05,1111122 
COMPS,ioos:station:USF.COMPS:FHP:1,2017-02-01T02:42:00Z,28.1530,-82.8010,16.05,1111122 
COMPS,ioos:station:USF.COMPS:FHP:1,2017-02-01T02:48:00Z,28.1530,-82.8010,16.05,1111122 
COMPS,ioos:station:USF.COMPS:FHP:1,2017-02-01T02:54:00Z,28.1530,-82.8010,15.94,1111122 
COMPS,ioos:station:USF.COMPS:FHP:1,2017-02-01T03:00:00Z,28.1530,-82.8010,15.8,1111122 
COMPS,ioos:station:USF.COMPS:FHP:1,2017-02-01T03:06:00Z,28.1530,-82.8010,15.92,1111122 
COMPS,ioos:station:USF.COMPS:FHP:1,2017-02-01T03:12:00Z,28.1530,-82.8010,15.93,1111122 
COMPS,ioos:station:USF.COMPS:FHP:1,2017-02-01T03:18:00Z,28.1530,-82.8010,15.84,1111122 
COMPS,ioos:station:USF.COMPS:FHP:1,2017-02-01T03:24:00Z,28.1530,-82.8010,15.79,1111122 
COMPS,ioos:station:USF.COMPS:FHP:1,2017-02-01T03:30:00Z,28.1530,-82.8010,15.84,1111122 
COMPS,ioos:station:USF.COMPS:FHP:1,2017-02-01T03:36:00Z,28.1530,-82.8010,15.98,1111122 
COMPS,ioos:station:USF.COMPS:FHP:1,2017-02-01T03:42:00Z,28.1530,-82.8010,16.09,1111122 
COMPS,ioos:station:USF.COMPS:FHP:1,2017-02-01T03:48:00Z,28.1530,-82.8010,16.08,1111122 
COMPS,ioos:station:USF.COMPS:FHP:1,2017-02-01T03:54:00Z,28.1530,-82.8010,15.79,1111122 
COMPS,ioos:station:USF.COMPS:FHP:1,2017-02-01T04:00:00Z,28.1530,-82.8010,15.79,1111122 
COMPS,ioos:station:USF.COMPS:FHP:1,2017-02-01T04:06:00Z,28.1530,-82.8010,15.26,1111122 
COMPS,ioos:station:USF.COMPS:FHP:1,2017-02-01T04:12:00Z,28.1530,-82.8010,14.54,1111122 
COMPS,ioos:station:USF.COMPS:FHP:1,2017-02-01T04:18:00Z,28.1530,-82.8010,14.45,1111122 
COMPS,ioos:station:USF.COMPS:FHP:1,2017-02-01T04:24:00Z,28.1530,-82.8010,14.62,1111122 
COMPS,ioos:station:USF.COMPS:FHP:1,2017-02-01T04:30:00Z,28.1530,-82.8010,14.72,1111122 
COMPS,ioos:station:USF.COMPS:FHP:1,2017-02-01T04:36:00Z,28.1530,-82.8010,14.73,1111122 
COMPS,ioos:station:USF.COMPS:FHP:1,2017-02-01T04:42:00Z,28.1530,-82.8010,14.72,1111122 
COMPS,ioos:station:USF.COMPS:FHP:1,2017-02-01T04:48:00Z,28.1530,-82.8010,14.57,1111122 
COMPS,ioos:station:USF.COMPS:FHP:1,2017-02-01T04:54:00Z,28.1530,-82.8010,14.24,1111122 
COMPS,ioos:station:USF.COMPS:FHP:1,2017-02-01T05:00:00Z,28.1530,-82.8010,14.18,1111122 
COMPS,ioos:station:USF.COMPS:FHP:1,2017-02-01T05:06:00Z,28.1530,-82.8010,14.17,1111122 
COMPS,ioos:station:USF.COMPS:FHP:1,2017-02-01T05:12:00Z,28.1530,-82.8010,14.17,1111122 
COMPS,ioos:station:USF.COMPS:FHP:1,2017-02-01T05:18:00Z,28.1530,-82.8010,14.26,1111122 
COMPS,ioos:station:USF.COMPS:FHP:1,2017-02-01T05:24:00Z,28.1530,-82.8010,14.05,1111122 
COMPS,ioos:station:USF.COMPS:FHP:1,2017-02-01T05:30:00Z,28.1530,-82.8010,14.17,1111122 
COMPS,ioos:station:USF.COMPS:FHP:1,2017-02-01T05:36:00Z,28.1530,-82.8010,14.15,1111122 
COMPS,ioos:station:USF.COMPS:FHP:1,2017-02-01T05:42:00Z,28.1530,-82.8010,14.08,1111122 
COMPS,ioos:station:USF.COMPS:FHP:1,2017-02-01T05:48:00Z,28.1530,-82.8010,14.17,1111122 
COMPS,ioos:station:USF.COMPS:FHP:1,2017-02-01T05:54:00Z,28.1530,-82.8010,14.23,1111122 
COMPS,ioos:station:USF.COMPS:FHP:1,2017-02-01T06:00:00Z,28.1530,-82.8010,14.22,1111122 
COMPS,ioos:station:USF.COMPS:FHP:1,2017-02-01T06:06:00Z,28.1530,-82.8010,14.22,1111122 
COMPS,ioos:station:USF.COMPS:FHP:1,2017-02-01T06:12:00Z,28.1530,-82.8010,14.27,1111122 
COMPS,ioos:station:USF.COMPS:FHP:1,2017-02-01T06:18:00Z,28.1530,-82.8010,14.31,1111122 
COMPS,ioos:station:USF.COMPS:FHP:1,2017-02-01T06:24:00Z,28.1530,-82.8010,14.27,1111122 
COMPS,ioos:station:USF.COMPS:FHP:1,2017-02-01T06:30:00Z,28.1530,-82.8010,14.18,1111122 
COMPS,ioos:station:USF.COMPS:FHP:1,2017-02-01T06:36:00Z,28.1530,-82.8010,14.25,1111122 
COMPS,ioos:station:USF.COMPS:FHP:1,2017-02-01T06:42:00Z,28.1530,-82.8010,14.33,1111122 
COMPS,ioos:station:USF.COMPS:FHP:1,2017-02-01T06:48:00Z,28.1530,-82.8010,14.37,1111122 
COMPS,ioos:station:USF.COMPS:FHP:1,2017-02-01T06:54:00Z,28.1530,-82.8010,14.41,1111122 
COMPS,ioos:station:USF.COMPS:FHP:1,2017-02-01T07:00:00Z,28.1530,-82.8010,14.3,1111122 
COMPS,ioos:station:USF.COMPS:FHP:1,2017-02-01T07:06:00Z,28.1530,-82.8010,14.26,1111122 
COMPS,ioos:station:USF.COMPS:FHP:1,2017-02-01T07:12:00Z,28.1530,-82.8010,14.3,1111122 
COMPS,ioos:station:USF.COMPS:FHP:1,2017-02-01T07:18:00Z,28.1530,-82.8010,14.22,1111122 
COMPS,ioos:station:USF.COMPS:FHP:1,2017-02-01T07:24:00Z,28.1530,-82.8010,14.17,1111122 
COMPS,ioos:station:USF.COMPS:FHP:1,2017-02-01T07:30:00Z,28.1530,-82.8010,14.17,1111122 
COMPS,ioos:station:USF.COMPS:FHP:1,2017-02-01T07:36:00Z,28.1530,-82.8010,14.23,1111122 
COMPS,ioos:station:USF.COMPS:FHP:1,2017-02-01T07:42:00Z,28.1530,-82.8010,13.95,1111122 
COMPS,ioos:station:USF.COMPS:FHP:1,2017-02-01T07:48:00Z,28.1530,-82.8010,13.87,1111122 
COMPS,ioos:station:USF.COMPS:FHP:1,2017-02-01T07:54:00Z,28.1530,-82.8010,13.87,1111122 
COMPS,ioos:station:USF.COMPS:FHP:1,2017-02-01T08:00:00Z,28.1530,-82.8010,13.87,1111122 
COMPS,ioos:station:USF.COMPS:FHP:1,2017-02-01T08:06:00Z,28.1530,-82.8010,13.7,1111122 
COMPS,ioos:station:USF.COMPS:FHP:1,2017-02-01T08:12:00Z,28.1530,-82.8010,13.6,1111122 
COMPS,ioos:station:USF.COMPS:FHP:1,2017-02-01T08:18:00Z,28.1530,-82.8010,13.62,1111122 
COMPS,ioos:station:USF.COMPS:FHP:1,2017-02-01T08:24:00Z,28.1530,-82.8010,13.66,1111122 
COMPS,ioos:station:USF.COMPS:FHP:1,2017-02-01T08:30:00Z,28.1530,-82.8010,13.71,1111122 
COMPS,ioos:station:USF.COMPS:FHP:1,2017-02-01T08:36:00Z,28.1530,-82.8010,13.77,1111122 
COMPS,ioos:station:USF.COMPS:FHP:1,2017-02-01T08:42:00Z,28.1530,-82.8010,13.47,1111122 
COMPS,ioos:station:USF.COMPS:FHP:1,2017-02-01T08:48:00Z,28.1530,-82.8010,13.19,1111122 
COMPS,ioos:station:USF.COMPS:FHP:1,2017-02-01T08:54:00Z,28.1530,-82.8010,13.16,1111122 
COMPS,ioos:station:USF.COMPS:FHP:1,2017-02-01T09:00:00Z,28.1530,-82.8010,13.29,1111122 
COMPS,ioos:station:USF.COMPS:FHP:1,2017-02-01T09:06:00Z,28.1530,-82.8010,13.21,1111122 
COMPS,ioos:station:USF.COMPS:FHP:1,2017-02-01T09:12:00Z,28.1530,-82.8010,13.09,1111122 
COMPS,ioos:station:USF.COMPS:FHP:1,2017-02-01T09:18:00Z,28.1530,-82.8010,13.08,1111122 
COMPS,ioos:station:USF.COMPS:FHP:1,2017-02-01T09:24:00Z,28.1530,-82.8010,12.91,1111122 
COMPS,ioos:station:USF.COMPS:FHP:1,2017-02-01T09:30:00Z,28.1530,-82.8010,12.94,1111122 
COMPS,ioos:station:USF.COMPS:FHP:1,2017-02-01T09:36:00Z,28.1530,-82.8010,12.97,1111122 
COMPS,ioos:station:USF.COMPS:FHP:1,2017-02-01T09:42:00Z,28.1530,-82.8010,12.84,1111122 
COMPS,ioos:station:USF.COMPS:FHP:1,2017-02-01T09:48:00Z,28.1530,-82.8010,12.68,1111122 
COMPS,ioos:station:USF.COMPS:FHP:1,2017-02-01T09:54:00Z,28.1530,-82.8010,12.69,1111122 
COMPS,ioos:station:USF.COMPS:FHP:1,2017-02-01T10:00:00Z,28.1530,-82.8010,12.55,1111122 
COMPS,ioos:station:USF.COMPS:FHP:1,2017-02-01T10:06:00Z,28.1530,-82.8010,12.55,1111122 
COMPS,ioos:station:USF.COMPS:FHP:1,2017-02-01T10:12:00Z,28.1530,-82.8010,12.53,1111122 
COMPS,ioos:station:USF.COMPS:FHP:1,2017-02-01T10:18:00Z,28.1530,-82.8010,12.56,1111122 
COMPS,ioos:station:USF.COMPS:FHP:1,2017-02-01T10:24:00Z,28.1530,-82.8010,12.51,1111122 
COMPS,ioos:station:USF.COMPS:FHP:1,2017-02-01T10:30:00Z,28.1530,-82.8010,12.47,1111122 
COMPS,ioos:station:USF.COMPS:FHP:1,2017-02-01T10:36:00Z,28.1530,-82.8010,12.61,1111122 
COMPS,ioos:station:USF.COMPS:FHP:1,2017-02-01T10:42:00Z,28.1530,-82.8010,12.58,1111122 
COMPS,ioos:station:USF.COMPS:FHP:1,2017-02-01T10:48:00Z,28.1530,-82.8010,12.45,1111122 
COMPS,ioos:station:USF.COMPS:FHP:1,2017-02-01T10:54:00Z,28.1530,-82.8010,12.52,1111122 
COMPS,ioos:station:USF.COMPS:FHP:1,2017-02-01T11:00:00Z,28.1530,-82.8010,12.47,1111122 
COMPS,ioos:station:USF.COMPS:FHP:1,2017-02-01T11:06:00Z,28.1530,-82.8010,12.47,1111122 
COMPS,ioos:station:USF.COMPS:FHP:1,2017-02-01T11:12:00Z,28.1530,-82.8010,12.46,1111122 
COMPS,ioos:station:USF.COMPS:FHP:1,2017-02-01T11:18:00Z,28.1530,-82.8010,12.28,1111122 
COMPS,ioos:station:USF.COMPS:FHP:1,2017-02-01T11:24:00Z,28.1530,-82.8010,12.18,1111122 
COMPS,ioos:station:USF.COMPS:FHP:1,2017-02-01T11:30:00Z,28.1530,-82.8010,12.2,1111122 
COMPS,ioos:station:USF.COMPS:FHP:1,2017-02-01T11:36:00Z,28.1530,-82.8010,12.2,1111122 
COMPS,ioos:station:USF.COMPS:FHP:1,2017-02-01T11:42:00Z,28.1530,-82.8010,12.14,1111122 
COMPS,ioos:station:USF.COMPS:FHP:1,2017-02-01T11:48:00Z,28.1530,-82.8010,12.08,1111122 
COMPS,ioos:station:USF.COMPS:FHP:1,2017-02-01T11:54:00Z,28.1530,-82.8010,12.06,1111122 
COMPS,ioos:station:USF.COMPS:FHP:1,2017-02-01T12:00:00Z,28.1530,-82.8010,12.04,1111122 
COMPS,ioos:station:USF.COMPS:FHP:1,2017-02-01T12:06:00Z,28.1530,-82.8010,12.1,1111122 
COMPS,ioos:station:USF.COMPS:FHP:1,2017-02-01T12:12:00Z,28.1530,-82.8010,12.07,1111122 
COMPS,ioos:station:USF.COMPS:FHP:1,2017-02-01T12:18:00Z,28.1530,-82.8010,11.99,1111122 
COMPS,ioos:station:USF.COMPS:FHP:1,2017-02-01T12:24:00Z,28.1530,-82.8010,12.07,1111122 
COMPS,ioos:station:USF.COMPS:FHP:1,2017-02-01T12:30:00Z,28.1530,-82.8010,12.02,1111122 
COMPS,ioos:station:USF.COMPS:FHP:1,2017-02-01T12:36:00Z,28.1530,-82.8010,11.99,1111122 
COMPS,ioos:station:USF.COMPS:FHP:1,2017-02-01T12:42:00Z,28.1530,-82.8010,12.05,1111122 
COMPS,ioos:station:USF.COMPS:FHP:1,2017-02-01T12:48:00Z,28.1530,-82.8010,12.15,1111122 
COMPS,ioos:station:USF.COMPS:FHP:1,2017-02-01T12:54:00Z,28.1530,-82.8010,12.19,1111122 
COMPS,ioos:station:USF.COMPS:FHP:1,2017-02-01T13:00:00Z,28.1530,-82.8010,12.29,1111122 
COMPS,ioos:station:USF.COMPS:FHP:1,2017-02-01T13:06:00Z,28.1530,-82.8010,12.34,1111122 
COMPS,ioos:station:USF.COMPS:FHP:1,2017-02-01T13:12:00Z,28.1530,-82.8010,12.42,1111122 
COMPS,ioos:station:USF.COMPS:FHP:1,2017-02-01T13:18:00Z,28.1530,-82.8010,12.52,1111122 
COMPS,ioos:station:USF.COMPS:FHP:1,2017-02-01T13:24:00Z,28.1530,-82.8010,12.7,1111122 
COMPS,ioos:station:USF.COMPS:FHP:1,2017-02-01T13:30:00Z,28.1530,-82.8010,13.01,1111122 
COMPS,ioos:station:USF.COMPS:FHP:1,2017-02-01T13:36:00Z,28.1530,-82.8010,13.44,1111122 
COMPS,ioos:station:USF.COMPS:FHP:1,2017-02-01T13:42:00Z,28.1530,-82.8010,13.79,1111122 
COMPS,ioos:station:USF.COMPS:FHP:1,2017-02-01T13:48:00Z,28.1530,-82.8010,14.19,1111122 
COMPS,ioos:station:USF.COMPS:FHP:1,2017-02-01T13:54:00Z,28.1530,-82.8010,14.24,1111122 
COMPS,ioos:station:USF.COMPS:FHP:1,2017-02-01T14:00:00Z,28.1530,-82.8010,14.61,1111122 
COMPS,ioos:station:USF.COMPS:FHP:1,2017-02-01T14:06:00Z,28.1530,-82.8010,15.15,1111122 
COMPS,ioos:station:USF.COMPS:FHP:1,2017-02-01T14:12:00Z,28.1530,-82.8010,15.64,1111122 
COMPS,ioos:station:USF.COMPS:FHP:1,2017-02-01T14:18:00Z,28.1530,-82.8010,15.71,1111122 
COMPS,ioos:station:USF.COMPS:FHP:1,2017-02-01T14:24:00Z,28.1530,-82.8010,15.89,1111122 
COMPS,ioos:station:USF.COMPS:FHP:1,2017-02-01T14:30:00Z,28.1530,-82.8010,16.05,1111122 
COMPS,ioos:station:USF.COMPS:FHP:1,2017-02-01T14:36:00Z,28.1530,-82.8010,16.1,1111122 
COMPS,ioos:station:USF.COMPS:FHP:1,2017-02-01T14:42:00Z,28.1530,-82.8010,16.09,1111122 
COMPS,ioos:station:USF.COMPS:FHP:1,2017-02-01T14:48:00Z,28.1530,-82.8010,16.3,1111122 
COMPS,ioos:station:USF.COMPS:FHP:1,2017-02-01T14:54:00Z,28.1530,-82.8010,16.2,1111122 
COMPS,ioos:station:USF.COMPS:FHP:1,2017-02-01T15:00:00Z,28.1530,-82.8010,16.36,1111122 
COMPS,ioos:station:USF.COMPS:FHP:1,2017-02-01T15:06:00Z,28.1530,-82.8010,16.82,1111122 
COMPS,ioos:station:USF.COMPS:FHP:1,2017-02-01T15:12:00Z,28.1530,-82.8010,17.1,1111122 
COMPS,ioos:station:USF.COMPS:FHP:1,2017-02-01T15:18:00Z,28.1530,-82.8010,16.98,1111122 
COMPS,ioos:station:USF.COMPS:FHP:1,2017-02-01T15:24:00Z,28.1530,-82.8010,16.89,1111122 
COMPS,ioos:station:USF.COMPS:FHP:1,2017-02-01T15:30:00Z,28.1530,-82.8010,17.2,1111122 
COMPS,ioos:station:USF.COMPS:FHP:1,2017-02-01T15:36:00Z,28.1530,-82.8010,17.35,1111122 
COMPS,ioos:station:USF.COMPS:FHP:1,2017-02-01T15:42:00Z,28.1530,-82.8010,17.83,1111122 
COMPS,ioos:station:USF.COMPS:FHP:1,2017-02-01T15:48:00Z,28.1530,-82.8010,18.04,1111122 
COMPS,ioos:station:USF.COMPS:FHP:1,2017-02-01T15:54:00Z,28.1530,-82.8010,18.31,1111122 
COMPS,ioos:station:USF.COMPS:FHP:1,2017-02-01T16:00:00Z,28.1530,-82.8010,18.61,1111122 
COMPS,ioos:station:USF.COMPS:FHP:1,2017-02-01T16:06:00Z,28.1530,-82.8010,19.21,1111122 
COMPS,ioos:station:USF.COMPS:FHP:1,2017-02-01T16:12:00Z,28.1530,-82.8010,19.19,1111122 
COMPS,ioos:station:USF.COMPS:FHP:1,2017-02-01T16:18:00Z,28.1530,-82.8010,19.11,1111122 
COMPS,ioos:station:USF.COMPS:FHP:1,2017-02-01T16:24:00Z,28.1530,-82.8010,18.81,1111122 
COMPS,ioos:station:USF.COMPS:FHP:1,2017-02-01T16:30:00Z,28.1530,-82.8010,19.02,1111122 
COMPS,ioos:station:USF.COMPS:FHP:1,2017-02-01T16:36:00Z,28.1530,-82.8010,18.8,1111122 
COMPS,ioos:station:USF.COMPS:FHP:1,2017-02-01T16:42:00Z,28.1530,-82.8010,18.85,1111122 
COMPS,ioos:station:USF.COMPS:FHP:1,2017-02-01T16:48:00Z,28.1530,-82.8010,18.74,1111122 
COMPS,ioos:station:USF.COMPS:FHP:1,2017-02-01T16:54:00Z,28.1530,-82.8010,18.68,1111122 
COMPS,ioos:station:USF.COMPS:FHP:1,2017-02-01T17:00:00Z,28.1530,-82.8010,19.14,1111122 
COMPS,ioos:station:USF.COMPS:FHP:1,2017-02-01T17:06:00Z,28.1530,-82.8010,19.31,1111122 
COMPS,ioos:station:USF.COMPS:FHP:1,2017-02-01T17:12:00Z,28.1530,-82.8010,18.65,1111122 
COMPS,ioos:station:USF.COMPS:FHP:1,2017-02-01T17:18:00Z,28.1530,-82.8010,18.31,1111122 
COMPS,ioos:station:USF.COMPS:FHP:1,2017-02-01T17:24:00Z,28.1530,-82.8010,17.93,1111122 
COMPS,ioos:station:USF.COMPS:FHP:1,2017-02-01T17:30:00Z,28.1530,-82.8010,17.3,1111122 
COMPS,ioos:station:USF.COMPS:FHP:1,2017-02-01T17:36:00Z,28.1530,-82.8010,17.9,1111122 
COMPS,ioos:station:USF.COMPS:FHP:1,2017-02-01T17:42:00Z,28.1530,-82.8010,17.61,1111122 
COMPS,ioos:station:USF.COMPS:FHP:1,2017-02-01T17:48:00Z,28.1530,-82.8010,17.64,1111122 
COMPS,ioos:station:USF.COMPS:FHP:1,2017-02-01T17:54:00Z,28.1530,-82.8010,17.64,1111122 
COMPS,ioos:station:USF.COMPS:FHP:1,2017-02-01T18:00:00Z,28.1530,-82.8010,17.61,1111122 
COMPS,ioos:station:USF.COMPS:FHP:1,2017-02-01T18:06:00Z,28.1530,-82.8010,17.74,1111122 
COMPS,ioos:station:USF.COMPS:FHP:1,2017-02-01T18:12:00Z,28.1530,-82.8010,17.87,1111122 
COMPS,ioos:station:USF.COMPS:FHP:1,2017-02-01T18:18:00Z,28.1530,-82.8010,17.7,1111122 
COMPS,ioos:station:USF.COMPS:FHP:1,2017-02-01T18:24:00Z,28.1530,-82.8010,17.67,1111122 
COMPS,ioos:station:USF.COMPS:FHP:1,2017-02-01T18:30:00Z,28.1530,-82.8010,18.15,1111122 
COMPS,ioos:station:USF.COMPS:FHP:1,2017-02-01T18:36:00Z,28.1530,-82.8010,18.81,1111122 
COMPS,ioos:station:USF.COMPS:FHP:1,2017-02-01T18:42:00Z,28.1530,-82.8010,19.45,1111122 
COMPS,ioos:station:USF.COMPS:FHP:1,2017-02-01T18:48:00Z,28.1530,-82.8010,19.73,1111122 
COMPS,ioos:station:USF.COMPS:FHP:1,2017-02-01T18:54:00Z,28.1530,-82.8010,19.87,1111122 
COMPS,ioos:station:USF.COMPS:FHP:1,2017-02-01T19:00:00Z,28.1530,-82.8010,19.98,1111122 
COMPS,ioos:station:USF.COMPS:FHP:1,2017-02-01T19:06:00Z,28.1530,-82.8010,19.78,1111122 
COMPS,ioos:station:USF.COMPS:FHP:1,2017-02-01T19:12:00Z,28.1530,-82.8010,19.5,1111122 
COMPS,ioos:station:USF.COMPS:FHP:1,2017-02-01T19:18:00Z,28.1530,-82.8010,19.34,1111122 
COMPS,ioos:station:USF.COMPS:FHP:1,2017-02-01T19:24:00Z,28.1530,-82.8010,19.42,1111122 
COMPS,ioos:station:USF.COMPS:FHP:1,2017-02-01T19:30:00Z,28.1530,-82.8010,19.67,1111122 
COMPS,ioos:station:USF.COMPS:FHP:1,2017-02-01T19:36:00Z,28.1530,-82.8010,19.59,1111122 
COMPS,ioos:station:USF.COMPS:FHP:1,2017-02-01T19:42:00Z,28.1530,-82.8010,19.64,1111122 
COMPS,ioos:station:USF.COMPS:FHP:1,2017-02-01T19:48:00Z,28.1530,-82.8010,19.7,1111122 
COMPS,ioos:station:USF.COMPS:FHP:1,2017-02-01T19:54:00Z,28.1530,-82.8010,19.63,1111122 
COMPS,ioos:station:USF.COMPS:FHP:1,2017-02-01T20:00:00Z,28.1530,-82.8010,19.49,1111122 
COMPS,ioos:station:USF.COMPS:FHP:1,2017-02-01T20:06:00Z,28.1530,-82.8010,19.57,1111122 
COMPS,ioos:station:USF.COMPS:FHP:1,2017-02-01T20:12:00Z,28.1530,-82.8010,19.84,1111122 
COMPS,ioos:station:USF.COMPS:FHP:1,2017-02-01T20:18:00Z,28.1530,-82.8010,19.79,1111122 
COMPS,ioos:station:USF.COMPS:FHP:1,2017-02-01T20:24:00Z,28.1530,-82.8010,19.67,1111122 
COMPS,ioos:station:USF.COMPS:FHP:1,2017-02-01T20:30:00Z,28.1530,-82.8010,19.5,1111122 
COMPS,ioos:station:USF.COMPS:FHP:1,2017-02-01T20:36:00Z,28.1530,-82.8010,19.67,1111122 
COMPS,ioos:station:USF.COMPS:FHP:1,2017-02-01T20:42:00Z,28.1530,-82.8010,19.73,1111122 
COMPS,ioos:station:USF.COMPS:FHP:1,2017-02-01T20:48:00Z,28.1530,-82.8010,19.58,1111122 
COMPS,ioos:station:USF.COMPS:FHP:1,2017-02-01T20:54:00Z,28.1530,-82.8010,19.84,1111122 
COMPS,ioos:station:USF.COMPS:FHP:1,2017-02-01T21:00:00Z,28.1530,-82.8010,19.92,1111122 
COMPS,ioos:station:USF.COMPS:FHP:1,2017-02-01T21:06:00Z,28.1530,-82.8010,19.78,1111122 
COMPS,ioos:station:USF.COMPS:FHP:1,2017-02-01T21:12:00Z,28.1530,-82.8010,19.62,1111122 
COMPS,ioos:station:USF.COMPS:FHP:1,2017-02-01T21:18:00Z,28.1530,-82.8010,19.71,1111122 
COMPS,ioos:station:USF.COMPS:FHP:1,2017-02-01T21:24:00Z,28.1530,-82.8010,19.77,1111122 
COMPS,ioos:station:USF.COMPS:FHP:1,2017-02-01T21:30:00Z,28.1530,-82.8010,19.52,1111122 
COMPS,ioos:station:USF.COMPS:FHP:1,2017-02-01T21:36:00Z,28.1530,-82.8010,19.08,1111122 
COMPS,ioos:station:USF.COMPS:FHP:1,2017-02-01T21:42:00Z,28.1530,-82.8010,19.33,1111122 
COMPS,ioos:station:USF.COMPS:FHP:1,2017-02-01T21:48:00Z,28.1530,-82.8010,19.26,1111122 
COMPS,ioos:station:USF.COMPS:FHP:1,2017-02-01T21:54:00Z,28.1530,-82.8010,19.07,1111122 
COMPS,ioos:station:USF.COMPS:FHP:1,2017-02-01T22:00:00Z,28.1530,-82.8010,18.59,1111122 
COMPS,ioos:station:USF.COMPS:FHP:1,2017-02-01T22:06:00Z,28.1530,-82.8010,18.38,1111122 
COMPS,ioos:station:USF.COMPS:FHP:1,2017-02-01T22:12:00Z,28.1530,-82.8010,18.18,1111122 
COMPS,ioos:station:USF.COMPS:FHP:1,2017-02-01T22:18:00Z,28.1530,-82.8010,18.2,1111122 
COMPS,ioos:station:USF.COMPS:FHP:1,2017-02-01T22:24:00Z,28.1530,-82.8010,18.12,1111122 
COMPS,ioos:station:USF.COMPS:FHP:1,2017-02-01T22:30:00Z,28.1530,-82.8010,18.15,1111122 
COMPS,ioos:station:USF.COMPS:FHP:1,2017-02-01T22:36:00Z,28.1530,-82.8010,18.16,1111122 
COMPS,ioos:station:USF.COMPS:FHP:1,2017-02-01T22:42:00Z,28.1530,-82.8010,18.1,1111122 
COMPS,ioos:station:USF.COMPS:FHP:1,2017-02-01T22:48:00Z,28.1530,-82.8010,18.06,1111122 
COMPS,ioos:station:USF.COMPS:FHP:1,2017-02-01T22:54:00Z,28.1530,-82.8010,18.03,1111122 
COMPS,ioos:station:USF.COMPS:FHP:1,2017-02-01T23:00:00Z,28.1530,-82.8010,17.93,1111122 
COMPS,ioos:station:USF.COMPS:FHP:1,2017-02-01T23:06:00Z,28.1530,-82.8010,17.88,1111122 
COMPS,ioos:station:USF.COMPS:FHP:1,2017-02-01T23:12:00Z,28.1530,-82.8010,17.86,1111122 
COMPS,ioos:station:USF.COMPS:FHP:1,2017-02-01T23:18:00Z,28.1530,-82.8010,17.88,1111122 
COMPS,ioos:station:USF.COMPS:FHP:1,2017-02-01T23:24:00Z,28.1530,-82.8010,17.8,1111122 
COMPS,ioos:station:USF.COMPS:FHP:1,2017-02-01T23:30:00Z,28.1530,-82.8010,17.68,1111122 
COMPS,ioos:station:USF.COMPS:FHP:1,2017-02-01T23:36:00Z,28.1530,-82.8010,17.63,1111122 
COMPS,ioos:station:USF.COMPS:FHP:1,2017-02-01T23:42:00Z,28.1530,-82.8010,17.56,1111122 
COMPS,ioos:station:USF.COMPS:FHP:1,2017-02-01T23:48:00Z,28.1530,-82.8010,17.53,1111122 
COMPS,ioos:station:USF.COMPS:FHP:1,2017-02-01T23:54:00Z,28.1530,-82.8010,17.53,1111122 
COMPS,ioos:station:USF.COMPS:FHP:1,2017-02-02T00:00:00Z,28.1530,-82.8010,17.54,1111122 
COMPS,ioos:station:USF.COMPS:FHP:1,2017-02-02T00:06:00Z,28.1530,-82.8010,17.52,1111122 
COMPS,ioos:station:USF.COMPS:FHP:1,2017-02-02T00:12:00Z,28.1530,-82.8010,17.45,1111122 
COMPS,ioos:station:USF.COMPS:FHP:1,2017-02-02T00:18:00Z,28.1530,-82.8010,17.24,1111122 
COMPS,ioos:station:USF.COMPS:FHP:1,2017-02-02T00:24:00Z,28.1530,-82.8010,17.25,1111122 
COMPS,ioos:station:USF.COMPS:FHP:1,2017-02-02T00:30:00Z,28.1530,-82.8010,17.3,1111122 
COMPS,ioos:station:USF.COMPS:FHP:1,2017-02-02T00:36:00Z,28.1530,-82.8010,17.01,1111122 
COMPS,ioos:station:USF.COMPS:FHP:1,2017-02-02T00:42:00Z,28.1530,-82.8010,16.93,1111122 
COMPS,ioos:station:USF.COMPS:FHP:1,2017-02-02T00:48:00Z,28.1530,-82.8010,16.94,1111122 
COMPS,ioos:station:USF.COMPS:FHP:1,2017-02-02T00:54:00Z,28.1530,-82.8010,16.88,1111122 
COMPS,ioos:station:USF.COMPS:FHP:1,2017-02-02T01:00:00Z,28.1530,-82.8010,17.04,1111122 
COMPS,ioos:station:USF.COMPS:FHP:1,2017-02-02T01:06:00Z,28.1530,-82.8010,17.28,1111122 
COMPS,ioos:station:USF.COMPS:FHP:1,2017-02-02T01:12:00Z,28.1530,-82.8010,17.1,1111122 
COMPS,ioos:station:USF.COMPS:FHP:1,2017-02-02T01:18:00Z,28.1530,-82.8010,16.87,1111122 
COMPS,ioos:station:USF.COMPS:FHP:1,2017-02-02T01:24:00Z,28.1530,-82.8010,16.97,1111122 
COMPS,ioos:station:USF.COMPS:FHP:1,2017-02-02T01:30:00Z,28.1530,-82.8010,17.0,1111122 
COMPS,ioos:station:USF.COMPS:FHP:1,2017-02-02T01:36:00Z,28.1530,-82.8010,16.96,1111122 
COMPS,ioos:station:USF.COMPS:FHP:1,2017-02-02T01:42:00Z,28.1530,-82.8010,16.82,1111122 
COMPS,ioos:station:USF.COMPS:FHP:1,2017-02-02T01:48:00Z,28.1530,-82.8010,16.63,1111122 
COMPS,ioos:station:USF.COMPS:FHP:1,2017-02-02T01:54:00Z,28.1530,-82.8010,16.5,1111122 
COMPS,ioos:station:USF.COMPS:FHP:1,2017-02-02T02:00:00Z,28.1530,-82.8010,16.59,1111122 
COMPS,ioos:station:USF.COMPS:FHP:1,2017-02-02T02:06:00Z,28.1530,-82.8010,16.72,1111122 
COMPS,ioos:station:USF.COMPS:FHP:1,2017-02-02T02:12:00Z,28.1530,-82.8010,16.73,1111122 
COMPS,ioos:station:USF.COMPS:FHP:1,2017-02-02T02:18:00Z,28.1530,-82.8010,16.66,1111122 
COMPS,ioos:station:USF.COMPS:FHP:1,2017-02-02T02:24:00Z,28.1530,-82.8010,16.4,1111122 
COMPS,ioos:station:USF.COMPS:FHP:1,2017-02-02T02:30:00Z,28.1530,-82.8010,16.07,1111122 
COMPS,ioos:station:USF.COMPS:FHP:1,2017-02-02T02:36:00Z,28.1530,-82.8010,15.9,1111122 
COMPS,ioos:station:USF.COMPS:FHP:1,2017-02-02T02:42:00Z,28.1530,-82.8010,15.82,1111122 
COMPS,ioos:station:USF.COMPS:FHP:1,2017-02-02T02:48:00Z,28.1530,-82.8010,15.64,1111122 
COMPS,ioos:station:USF.COMPS:FHP:1,2017-02-02T02:54:00Z,28.1530,-82.8010,15.48,1111122 
COMPS,ioos:station:USF.COMPS:FHP:1,2017-02-02T03:00:00Z,28.1530,-82.8010,15.29,1111122 
COMPS,ioos:station:USF.COMPS:FHP:1,2017-02-02T03:06:00Z,28.1530,-82.8010,15.3,1111122 